Content
SEND FEEDBACK

Daily
Averages
Monthly
Summary
United States of America

MOUNT SHASTA, CALIFORNIA


Home > North America > United States > California
Elevation: 1121 meters     Latitude: 41 19N     Longitude: 122 19W

WEATHER
 
SELECT A DAY
Number of Records: 231,425;   Date Range: 1/1/95 - 8/12/14
 
SHARE

PRINT THIS DATA

[ ← Previous Day ]
WEATHER ALMANAC - 18 SEPTEMBER, 2013
[ Next Day → ]
[ °F ]   °C
Weather ElementAverageHighLow
Temperature12.2 °C20.6 °C (2:56 pm)6.7 °C (11:56 pm)
Dewpoint4.7 °C6 °C (8:15 am)2.8 °C (11:56 pm)
Humidity63.7 %86 % (4:56 am)32 % (2:56 pm)
Barometer1018.3 hPa1020.7 hPa (6:56 am)1015.9 hPa (3:56 pm)
Wind Speed5.1 km/h13 km/h (2:56 am)
Weather ElementAverage
Visibility16.1 km
Wind DirectionNNE (15.2 °)

Weather ElementTotal
Precipitation---
Heating Degree Days4.7 (Base 18.3)
Growing Degree Days3.7 (Base 10)
Averaged from 25 records on 18 September, 2013
WEATHER CONDITIONS BREAKOUT
WIND DIRECTION BREAKOUT
WEATHER BY HOUR - 18 SEPTEMBER, 2013
[ °F ]   °C
Local TimeTemperatureDewpointHumidityBarometerVisibilityWind DirectionWind SpeedGust SpeedPrecipitationEventsConditions
1:56 AM8.9 °C5.6 °C80 %1018.3 hPa16.1 kmVariable11.1 km/hPartly Cloudy
2:56 AM8.3 °C5.6 °C83 %1018.3 hPa16.1 kmNW (320°)13 km/hPartly Cloudy
3:56 AM8.3 °C5 °C80 %1019 hPa16.1 kmVariable5.6 km/hClear
4:56 AM7.2 °C5 °C86 %1019.3 hPa16.1 kmNE (50°)5.6 km/hPartly Cloudy
5:56 AM7.2 °C5 °C86 %1020 hPa16.1 kmCalmClear
6:56 AM7.2 °C5 °C86 %1020.7 hPa16.1 kmVariable5.6 km/hPartly Cloudy
7:18 AM8 °C5 °C81 %1019.3 hPa16.1 kmVariable7.4 km/hMostly Cloudy
7:56 AM8.9 °C5.6 °C80 %1020.7 hPa16.1 kmCalmMostly Cloudy
8:15 AM9 °C6 °C82 %1019.3 hPa16.1 kmNorth (10°)5.6 km/hScattered Clouds
8:56 AM10.6 °C5 °C68 %1020.7 hPa16.1 kmVariable7.4 km/hClear
9:56 AM12.8 °C4.4 °C57 %1020.3 hPa16.1 kmCalmClear
10:56 AM14.4 °C3.9 °C49 %1019.3 hPa16.1 kmVariable9.3 km/hClear
11:56 AM16.7 °C5.6 °C48 %1018.6 hPa16.1 kmVariable7.4 km/hClear
12:56 PM17.8 °C5.6 °C45 %1017.9 hPa16.1 kmVariable7.4 km/hClear
1:56 PM19.4 °C5 °C39 %1017.3 hPa16.1 kmVariable7.4 km/hClear
2:56 PM20.6 °C3.3 °C32 %1016.6 hPa16.1 kmVariable11.1 km/hClear
3:56 PM20.6 °C3.3 °C32 %1015.9 hPa16.1 kmVariable11.1 km/hClear
4:56 PM19.4 °C5 °C39 %1016.3 hPa16.1 kmVariable7.4 km/hClear
5:56 PM18.9 °C5 °C40 %1016.3 hPa16.1 kmVariable5.6 km/hClear
6:56 PM15.6 °C4.4 °C47 %1016.9 hPa16.1 kmCalmClear
7:56 PM12.2 °C5.6 °C64 %1017.3 hPa16.1 kmCalmClear
8:56 PM10.6 °C4.4 °C66 %1017.9 hPa16.1 kmCalmClear
9:56 PM8.3 °C3.9 °C74 %1017.9 hPa16.1 kmCalmClear
10:56 PM7.8 °C3.3 °C73 %1017.9 hPa16.1 kmCalmClear
11:56 PM6.7 °C2.8 °C76 %1017.6 hPa16.1 kmCalmClear
Hourly data recorded from KMHS, located 0 kilometers away from Mount Shasta, California







STORIES FROM OUR PARTNERS